FW9465 Weather Reports


time (UTC)temp
C
wind
direction
speed
KPH
gust
KPH
rain 1hr
cm
rain 24hr
cm
rain mn
cm
humidity
%
barometer
mb
20260507075230 12 17 6.4 11.3 0.00 0.18 0.00 84 1017.4
20260507073232 12 342 8.0 11.3 0.00 0.18 0.00 83 1017.5
20260507072232 12 340 6.4 12.9 0.00 0.18 0.00 82 1017.4
20260507071330 12 339 6.4 11.3 0.00 0.18 0.00 81 1017.3
20260507065347 13 19 8.0 11.3 0.00 0.18 0.00 79 1017.1
20260507064348 13 26 11.3 14.5 0.00 0.18 0.00 79 1016.7
20260507063432 13 22 9.7 11.3 0.00 0.18 0.00 79 1016.7
20260507062431 13 20 11.3 14.5 0.00 0.18 0.00 78 1016.8
20260507061432 13 22 6.4 8.0 0.00 0.18 0.00 78 1016.6
20260507060433 13 22 6.4 9.7 0.00 0.18 0.00 77 1016.7
20260507054432 13 22 6.4 9.7 0.00 0.18 0.00 77 1016.7
20260507051432 13 35 8.0 11.3 0.00 0.18 0.00 77 1016.7
20260507044549 14 39 8.0 12.9 0.00 0.18 0.18 75 1016.5
20260507043633 14 42 8.0 11.3 0.00 0.18 0.18 74 1016.7
20260507042633 14 30 14.5 19.3 0.00 0.18 0.18 74 1016.7
20260507035734 15 42 17.7 29.0 0.00 0.18 0.18 73 1016.9
20260507033732 15 25 16.1 22.5 0.00 0.18 0.18 73 1016.9
20260507032832 15 29 14.5 20.9 0.00 0.18 0.18 71 1016.7
20260507031833 15 7 16.1 27.4 0.00 0.18 0.18 72 1016.5
20260507030835 16 1 16.1 22.5 0.00 0.18 0.18 72 1016.7
20260507025834 16 5 14.5 20.9 0.00 0.18 0.18 72 1016.6
20260507024848 16 11 17.7 22.5 0.00 0.18 0.18 71 1016.6
20260507023833 16 8 11.3 17.7 0.00 0.18 0.18 72 1016.4
20260507022836 16 10 12.9 17.7 0.00 0.18 0.18 72 1016.1
20260507021933 16 360 11.3 16.1 0.00 0.18 0.18 74 1015.9
20260507021031 16 25 9.7 14.5 0.00 0.18 0.18 73 1015.7
20260507020036 16 35 11.3 16.1 0.00 0.18 0.18 72 1015.4
20260507015033 16 24 8.0 11.3 0.00 0.18 0.18 70 1015.4
20260507014049 16 18 14.5 17.7 0.00 0.18 0.18 70 1014.9
20260507013135 17 22 9.7 12.9 0.00 0.18 0.18 70 1014.8
20260507011133 17 21 9.7 16.1 0.00 0.18 0.18 70 1014.5
20260507010133 17 20 14.5 19.3 0.00 0.18 0.18 70 1014.2
20260507005132 17 20 6.4 12.9 0.00 0.18 0.18 69 1014.2
20260507004132 17 11 11.3 14.5 0.00 0.18 0.18 68 1014.1
20260507003151 17 14 16.1 22.5 0.00 0.18 0.18 67 1013.9
20260507002233 18 9 9.7 16.1 0.00 0.18 0.18 67 1014.1
20260507001249 18 15 12.9 17.7 0.00 0.18 0.18 66 1013.8
20260507000234 17 5 14.5 19.3 0.00 0.18 0.18 74 1013.8
20260506235234 17 48 0.0 4.8 0.00 0.18 0.18 73 1013.8
20260506234250 17 45 1.6 6.4 0.00 0.18 0.18 74 1013.7
20260506233233 17 45 3.2 4.8 0.00 0.18 0.18 74 1013.3
20260506231233 17 72 0.0 6.4 0.00 0.18 0.18 75 1013.3
20260506230332 17 67 4.8 6.4 0.00 0.18 0.18 73 1013.2
20260506224332 16 84 8.0 9.7 0.00 0.18 0.18 75 1013.4
20260506223432 16 67 1.6 4.8 0.08 0.18 0.18 75 1013.3
20260506222432 16 93 4.8 9.7 0.08 0.18 0.18 77 1013.4
20260506221432 16 99 1.6 4.8 0.08 0.18 0.18 79 1013.5
20260506215432 15 45 6.4 9.7 0.08 0.18 0.18 80 1013.2
20260506214435 15 39 1.6 4.8 0.08 0.18 0.18 78 1013.6
20260506213531 16 359 6.4 9.7 0.00 0.10 0.10 74 1013.4
20260506212532 16 22 9.7 12.9 0.00 0.10 0.10 70 1013.6
20260506211534 16 360 11.3 12.9 0.00 0.10 0.10 70 1013.6
20260506210631 16 22 4.8 8.0 0.00 0.10 0.10 69 1013.3
20260506205634 16 11 9.7 11.3 0.00 0.10 0.10 69 1013.6
20260506204732 16 330 11.3 14.5 0.00 0.10 0.10 70 1013.8
20260506202732 15 44 12.9 17.7 0.00 0.10 0.10 70 1013.6
20260506201732 15 14 12.9 17.7 0.00 0.10 0.10 71 1013.9
20260506195731 15 9 9.7 16.1 0.00 0.10 0.10 70 1014.4
20260506194748 15 17 6.4 12.9 0.00 0.10 0.10 71 1014.5
20260506193834 15 346 9.7 14.5 0.00 0.10 0.10 72 1014.6
20260506192932 14 8 11.3 14.5 0.00 0.10 0.10 73 1014.8
20260506191948 14 346 4.8 14.5 0.00 0.10 0.10 73 1014.9
20260506191031 13 21 4.8 8.0 0.00 0.10 0.10 74 1014.9
20260506185033 13 22 6.4 11.3 0.00 0.10 0.10 76 1015.2
20260506184033 13 12 1.6 6.4 0.00 0.10 0.10 76 1015.4
20260506183033 13 345 4.8 11.3 0.00 0.10 0.10 76 1015.0
20260506182048 13 350 8.0 12.9 0.00 0.10 0.10 77 1014.4
20260506181131 12 3 19.3 30.6 0.00 0.10 0.10 78 1013.7
20260506180132 12 336 16.1 24.1 0.00 0.10 0.10 80 1013.7
20260506174133 12 348 20.9 27.4 0.00 0.10 0.10 81 1014.1
20260506173131 12 342 6.4 16.1 0.03 0.10 0.10 83 1014.6
20260506172230 11 354 6.4 12.9 0.03 0.10 0.10 83 1014.6
20260506171233 11 5 8.0 14.5 0.03 0.10 0.10 84 1014.5
20260506170232 11 8 14.5 22.5 0.03 0.10 0.10 85 1014.5
20260506165331 11 10 16.1 22.5 0.03 0.10 0.10 84 1014.1
20260506164248 11 5 14.5 22.5 0.03 0.10 0.10 84 1014.4
20260506162332 11 359 9.7 17.7 0.00 0.08 0.08 86 1014.6
20260506161334 11 358 16.1 22.5 0.00 0.08 0.08 86 1014.6
20260506160431 11 24 11.3 17.7 0.00 0.08 0.08 89 1014.2
20260506155449 11 353 9.7 17.7 0.00 0.08 0.08 90 1014.4
20260506154431 11 1 17.7 22.5 0.05 0.08 0.08 91 1013.2
20260506153431 10 351 11.3 19.3 0.08 0.08 0.08 91 1013.8
20260506151432 10 342 9.7 17.7 0.08 0.08 0.08 90 1014.8
20260506145433 10 7 12.9 17.7 0.08 0.08 0.08 87 1014.8
20260506144431 10 320 9.7 14.5 0.03 0.03 0.03 85 1016.1
20260506143432 10 335 4.8 11.3 0.00 0.00 0.00 84 1015.8
20260506142431 10 340 8.0 14.5 0.00 0.00 0.00 84 1015.9
20260506140432 11 348 11.3 20.9 0.00 0.00 0.00 83 1013.9
20260506135431 11 339 12.9 20.9 0.00 0.00 0.00 83 1014.5
20260506134433 11 313 16.1 22.5 0.00 0.00 0.00 83 1014.9
20260506133432 11 13 19.3 27.4 0.00 0.00 0.00 82 1014.0
20260506131449 11 359 12.9 16.1 0.00 0.00 0.00 81 1013.6
20260506130531 11 1 11.3 19.3 0.00 0.00 0.00 81 1013.7
20260506125533 11 12 16.1 25.7 0.00 0.00 0.00 80 1013.0
20260506124535 11 353 14.5 22.5 0.00 0.00 0.00 78 1012.8
20260506123531 11 342 17.7 27.4 0.00 0.00 0.00 78 1012.8
20260506121631 12 345 11.3 19.3 0.00 0.00 0.00 76 1012.9
20260506120632 12 352 14.5 19.3 0.00 0.00 0.00 76 1012.4
20260506115631 12 359 17.7 24.1 0.00 0.00 0.00 77 1012.4
20260506113633 12 355 14.5 19.3 0.00 0.00 0.00 76 1012.2
20260506112731 12 354 14.5 22.5 0.00 0.00 0.00 75 1012.2
20260506110831 13 356 11.3 20.9 0.00 0.00 0.00 75 1011.9
20260506105830 13 358 11.3 14.5 0.00 0.00 0.00 75 1011.5
20260506104832 13 346 11.3 19.3 0.00 0.00 0.00 75 1011.6
20260506103830 13 341 11.3 17.7 0.00 0.00 0.00 75 1011.3
20260506102832 13 352 8.0 16.1 0.00 0.00 0.00 77 1011.2
20260506101831 13 328 17.7 20.9 0.00 0.00 0.00 77 1011.2
20260506095931 13 4 9.7 14.5 0.00 0.00 0.00 75 1010.7
20260506094031 13 347 8.0 11.3 0.00 0.00 0.00 76 1010.5
20260506093034 13 342 9.7 14.5 0.00 0.00 0.00 77 1010.6
20260506092030 13 344 8.0 14.5 0.00 0.00 0.00 77 1010.4
20260506091033 13 348 14.5 17.7 0.00 0.00 0.00 78 1010.3
20260506090034 13 340 9.7 12.9 0.00 0.00 0.00 77 1010.5
20260506085047 13 334 11.3 16.1 0.00 0.00 0.00 78 1010.4
20260506084129 13 2 9.7 12.9 0.00 0.00 0.00 78 1010.3
20260506083132 13 357 14.5 19.3 0.00 0.00 0.00 79 1010.2
20260506082147 14 351 14.5 19.3 0.00 0.00 0.00 78 1010.0
20260506081231 14 341 12.9 19.3 0.00 0.00 0.00 79 1010.0
20260506080231 14 345 12.9 17.7 0.00 0.00 0.00 78 1010.0